Starlink 33695

operational
NORAD ID: 63478 Int'l Des: 2025-070 Owner: SPXS Country: US Constellation: starlink
LEOCIRCULAR

About Starlink 33695

Description loading...

Live Position

Loading 3D Globe...

Upcoming Passes

Altitude History

Altitude vs Time

uPlot chart will show altitude changes over time

Two-Line Element Set

1 63478U 25070U 25261.09590199 .00033318 00000-0 12137-2 0 9994
2 63478 43.0017 150.7579 0001838 282.0956 77.9690 15.27609973 26624
Epoch: Sep 18, 2025 • Age: 10 hours

Current Status

Altitude 484.3 km
Velocity 7.62 km/s
Sub-Earth Point -9.27°S, 152.28°E
Launch Date Apr 6, 2025
Age 0.4 years
Type internet

Technical Details

Classification Payload
Mass 575.00 kg
Dry Mass 530.00 kg
Total Mass 575.00 kg
Length 0.30 m
Diameter 4.10 m
Span 29.00 m
Shape Box + pan
Manufacturer SPXS
Bus Type Starlink V2MO
Phase Status In Orbit
Owner/State SPXS/US

Large Constellations

Loading constellations...